Location: Prairie Dale
(45.6972°N, 104.5033°W)
Time: 15:15:28
(UTC+00:00)

Envisat - Pass Details

Date: 30 January 2022
Orbit: 764 x 765 km, 98.2° (Epoch: 15 May)

Event Time Altitude Azimuth Distance (km) Brightness Sun altitude
Rises 13:29:32 0° 358° (N) 3,242 6.1 -9.4°
Reaches altitude 10° 13:32:38 10° 339° (NNW) 2,312 5.1 -8.9°
Maximum altitude 13:35:42 16° 301° (WNW) 1,903 4.4 -8.4°
Drops below altitude 10° 13:38:46 10° 264° (W) 2,304 4.9 -7.8°
Sets 13:41:52 0° 244° (WSW) 3,225 5.8 -7.3°
